ANTELSAT

operational
NORAD ID: 40034 Int'l Des: 2014-033 Owner: FING/ANTEL Country: UY
LEOCIRCULARRETROGRADESSO

ANTELSATについて

説明を読み込み中...

リアルタイム位置

3D地球を読み込み中...

次回通過

高度履歴

Altitude vs Time

uPlot chart will show altitude changes over time

軌道要素

1 40034U 14033AA 26061.39328067 .00005546 00000-0 56904-3 0 9992
2 40034 97.7618 218.8857 0044730 51.3167 309.2039 14.90068646629907
Epoch: Mar 2, 2026 • Age: 27 hours

現在のステータス

高度 645.2 km
速度 7.52 km/s
衛星直下点 -42.74°S, 166.76°W
打ち上げ日 Jun 19, 2014
運用期間 11.7 years
タイプ other

技術仕様

分類 Payload
質量 2.00 kg
乾燥質量 2.00 kg
総質量 2.00 kg
長さ 0.20 m
直径 0.10 m
スパン 0.20 m
形状 Box+boom
製造者 FING
バスタイプ Cubesat 2U
フェーズステータス In Orbit
所有者/国 FING/ANTEL/UY

大規模コンステレーション

Loading constellations...